This is the latest recevied weather packets stored in our database for station/object KF6RAL-6. If no packets are shown the sender has not sent any weather packets the latest 10 day(s).
| Time | Temp. | Humidity | Pressure | Rain* | Wind** | Luminosity | Snow |
|---|---|---|---|---|---|---|---|
| 1788143132 | 74° F | 54% | 760.9 mmHg | 0 in | - | - | - |
| 1788142711 | 74° F | 54% | 760.8 mmHg | 0 in | - | - | - |
| 1788141870 | 76° F | 49% | 760.7 mmHg | 0 in | - | - | - |
| 1788141448 | 76° F | 46% | 760.4 mmHg | 0 in | - | - | - |
| 1788141027 | 77° F | 46% | 760.4 mmHg | 0 in | - | - | - |
| 1788140606 | 77° F | 45% | 760.4 mmHg | 0 in | - | - | - |
| 1788140186 | 77° F | 46% | 760.4 mmHg | 0 in | - | - | - |
| 1788139765 | 77° F | 47% | 760.4 mmHg | 0 in | - | - | - |
| 1788139343 | 78° F | 46% | 761.1 mmHg | 0 in | - | - | - |
| 1788138922 | 78° F | 45% | 760.6 mmHg | 0 in | - | - | - |
| 1788138501 | 78° F | 45% | 760.6 mmHg | 0 in | - | - | - |
| 1788138082 | 78° F | 45% | 760.6 mmHg | 0 in | - | - | - |
| 1788137660 | 78° F | 44% | 761.1 mmHg | 0 in | - | - | - |
| 1788137238 | 78° F | 44% | 761.1 mmHg | 0 in | - | - | - |
| 1788136818 | 78° F | 43% | 761.1 mmHg | 0 in | - | - | - |
| 1788136399 | 78° F | 44% | 761.1 mmHg | 0 in | - | - | - |
| 1788135976 | 79° F | 46% | 761 mmHg | 0 in | - | - | - |
| 1788135554 | 78° F | 44% | 761.2 mmHg | 0 in | - | - | - |
| 1788135134 | 78° F | 47% | 761.2 mmHg | 0 in | - | - | - |
| 1788134712 | 78° F | 48% | 761 mmHg | 0 in | - | - | - |
| 1788133870 | 78° F | 49% | 761.2 mmHg | 0 in | - | - | - |
| 1788133449 | 78° F | 50% | 761.2 mmHg | 0 in | - | - | - |
| 1788133028 | 78° F | 49% | 761.2 mmHg | 0 in | - | - | - |
| 1788132607 | 78° F | 49% | 761.2 mmHg | 0 in | - | - | - |
| 1788132186 | 78° F | 50% | 761.1 mmHg | 0 in | - | - | - |
* Rain latest hour (hover to see other rain measurements)
** Current wind speed in m/s (hover to see current wind gust speed)